EW3623 Weather Reports


time (UTC)temp
C
wind
direction
speed
KPH
gust
KPH
rain 1hr
cm
rain 24hr
cm
rain mn
cm
humidity
%
barometer
mb
20260504015335 17 213 8.0 16.1 0.00 0.05 0.05 54 1005.6
20260504014850 17 199 9.7 16.1 0.00 0.05 0.05 54 1005.5
20260504014516 17 225 8.0 16.1 0.00 0.05 0.05 54 1005.5
20260504014335 17 202 6.4 14.5 0.00 0.05 0.05 54 1005.6
20260504013817 17 227 6.4 19.3 0.00 0.05 0.05 53 1005.5
20260504013347 17 190 9.7 17.7 0.00 0.05 0.05 53 1005.5
20260504013002 17 227 8.0 17.7 0.00 0.05 0.05 53 1005.4
20260504012827 17 201 9.7 16.1 0.00 0.05 0.05 53 1005.5
20260504012317 17 203 8.0 17.7 0.00 0.05 0.05 53 1005.4
20260504011851 17 237 9.7 17.7 0.00 0.05 0.05 52 1005.4
20260504011558 17 225 8.0 16.1 0.00 0.05 0.05 52 1005.4
20260504011316 17 192 8.0 19.3 0.00 0.05 0.05 52 1005.3
20260504010828 18 207 9.7 19.3 0.00 0.05 0.05 52 1005.3
20260504010314 18 207 11.3 19.3 0.00 0.05 0.05 51 1005.3
20260504010014 17 194 6.4 24.1 0.00 0.05 0.05 51 1005.1
20260504005825 18 242 8.0 24.1 0.00 0.05 0.05 51 1005.2
20260504005335 18 236 12.9 24.1 0.00 0.05 0.05 50 1005.2
20260504004837 18 223 8.0 19.3 0.00 0.05 0.05 50 1005.2
20260504004530 18 219 11.3 19.3 0.00 0.05 0.05 49 1005.2
20260504004356 18 202 8.0 20.9 0.00 0.05 0.05 49 1005.2
20260504003824 18 238 9.7 30.6 0.00 0.05 0.05 49 1005.2
20260504003315 18 243 12.9 30.6 0.00 0.05 0.05 49 1005.3
20260504003009 18 226 14.5 20.9 0.00 0.05 0.05 48 1005.3
20260504002823 18 261 14.5 20.9 0.00 0.05 0.05 48 1005.3
20260504002324 19 221 11.3 25.7 0.00 0.05 0.05 48 1005.3
20260504001817 19 360 12.9 24.1 0.00 0.05 0.05 47 1005.3
20260504001530 18 223 11.3 24.1 0.00 0.05 0.05 47 1005.4
20260504001321 19 223 9.7 22.5 0.00 0.05 0.05 47 1005.3
20260504000831 19 232 11.3 27.4 0.00 0.05 0.05 47 1005.3
20260504000318 19 234 11.3 27.4 0.00 0.05 0.05 46 1005.2
20260504000034 19 223 11.3 22.5 0.00 0.05 0.05 46 1005.2
20260503235820 19 241 12.9 27.4 0.00 0.05 0.05 46 1005.2
20260503235328 20 234 12.9 27.4 0.00 0.05 0.05 46 1005.2
20260503234830 20 360 11.3 25.7 0.00 0.05 0.05 45 1005.2
20260503234551 19 201 11.3 30.6 0.00 0.05 0.05 45 1005.2
20260503234333 20 250 11.3 30.6 0.00 0.05 0.05 45 1005.3
20260503233843 20 360 16.1 30.6 0.00 0.05 0.05 45 1005.3
20260503233347 20 194 8.0 20.9 0.00 0.05 0.05 45 1005.2
20260503233055 20 218 9.7 20.9 0.00 0.05 0.05 44 1005.1
20260503232851 20 196 11.3 27.4 0.00 0.05 0.05 44 1005.1
20260503232338 20 230 6.4 32.2 0.00 0.05 0.05 44 1005.1
20260503231843 20 164 17.7 32.2 0.00 0.05 0.05 44 1005.2
20260503231528 20 203 17.7 35.4 0.00 0.05 0.05 43 1005.2
20260503231335 20 188 14.5 27.4 0.00 0.05 0.05 44 1005.2
20260503230850 20 178 12.9 27.4 0.00 0.05 0.05 44 1005.2
20260503230317 20 233 11.3 29.0 0.00 0.05 0.05 44 1005.3
20260503230026 20 225 12.9 29.0 0.00 0.05 0.05 44 1005.5
20260503225847 20 220 16.1 29.0 0.00 0.05 0.05 43 1005.3
20260503225333 20 360 16.1 25.7 0.00 0.05 0.05 44 1005.4
20260503224817 20 194 11.3 25.7 0.00 0.05 0.05 44 1005.5
20260503224518 19 208 12.9 32.2 0.00 0.05 0.05 43 1005.6
20260503224324 20 203 14.5 32.2 0.00 0.05 0.05 43 1005.6
20260503223836 20 199 19.3 32.2 0.00 0.05 0.05 43 1005.6
20260503223343 20 205 12.9 29.0 0.00 0.05 0.05 43 1005.6
20260503223012 19 198 14.5 33.8 0.00 0.05 0.05 43 1005.7
20260503222834 19 277 14.5 33.8 0.00 0.05 0.05 43 1005.6
20260503222322 19 229 12.9 25.7 0.00 0.05 0.05 44 1005.7
20260503221813 19 208 14.5 29.0 0.00 0.05 0.05 43 1005.8
20260503221531 19 360 14.5 29.0 0.00 0.05 0.05 43 1005.7
20260503221322 19 237 17.7 29.0 0.00 0.05 0.05 44 1005.8
20260503220831 19 221 14.5 35.4 0.00 0.05 0.05 45 1005.9
20260503220318 19 203 17.7 29.0 0.00 0.05 0.05 44 1005.6
20260503220047 18 217 11.3 27.4 0.00 0.05 0.05 45 1005.4
20260503215820 18 176 16.1 33.8 0.00 0.05 0.05 44 1005.3
20260503215326 18 184 17.7 33.8 0.00 0.05 0.05 45 1005.0
20260503214826 18 360 20.9 30.6 0.00 0.05 0.05 45 1004.7
20260503214557 18 188 12.9 30.6 0.00 0.05 0.05 45 1004.8
20260503214321 18 360 16.1 35.4 0.00 0.05 0.05 45 1005.5
20260503213855 18 166 16.1 35.4 0.00 0.05 0.05 45 1006.1
20260503213327 18 228 14.5 32.2 0.00 0.05 0.05 44 1006.3
20260503213052 18 194 14.5 32.2 0.00 0.05 0.05 44 1005.5
20260503212818 18 202 19.3 32.2 0.00 0.05 0.05 44 1005.1
20260503212327 18 224 16.1 35.4 0.00 0.05 0.05 44 1005.0
20260503211816 18 190 14.5 37.0 0.00 0.05 0.05 43 1005.8
20260503211516 18 227 19.3 37.0 0.00 0.05 0.05 43 1006.8
20260503211348 18 208 20.9 37.0 0.00 0.05 0.05 43 1006.6
20260503210830 18 184 11.3 43.5 0.00 0.05 0.05 44 1006.7
20260503210320 18 246 24.1 43.5 0.00 0.05 0.05 43 1006.8
20260503210003 17 360 20.9 37.0 0.00 0.05 0.05 43 1007.0
20260503205833 17 167 14.5 41.8 0.00 0.05 0.05 44 1006.9
20260503205321 17 204 19.3 41.8 0.00 0.05 0.05 43 1007.0
20260503204822 17 175 20.9 45.1 0.00 0.05 0.05 43 1007.1
20260503204524 17 200 22.5 45.1 0.00 0.05 0.05 43 1007.2
20260503204326 17 196 25.7 45.1 0.00 0.05 0.05 43 1007.3
20260503203833 17 206 20.9 40.2 0.00 0.05 0.05 43 1007.4
20260503203330 17 193 22.5 41.8 0.00 0.05 0.05 43 1007.5
20260503203027 17 181 22.5 41.8 0.00 0.05 0.05 43 1007.7
20260503202817 17 191 24.1 45.1 0.00 0.05 0.05 43 1007.6
20260503202354 17 206 20.9 45.1 0.00 0.05 0.05 43 1007.6
20260503201826 17 226 14.5 38.6 0.00 0.05 0.05 43 1007.7
20260503201543 17 276 17.7 38.6 0.00 0.05 0.05 43 1007.8
20260503201319 17 259 19.3 40.2 0.00 0.05 0.05 44 1007.7
20260503200851 17 193 22.5 51.5 0.00 0.05 0.05 44 1007.8
20260503200319 17 194 20.9 51.5 0.00 0.05 0.05 44 1007.8
20260503200028 17 198 25.7 51.5 0.00 0.05 0.05 44 1007.9
20260503195833 17 200 19.3 38.6 0.00 0.05 0.05 44 1007.8
20260503195317 17 216 17.7 43.5 0.00 0.05 0.05 46 1007.8
20260503194817 17 203 27.4 43.5 0.00 0.05 0.05 45 1008.0
20260503194540 17 202 20.9 48.3 0.00 0.05 0.05 46 1008.0
20260503194323 17 202 20.9 48.3 0.00 0.05 0.05 47 1008.0
20260503193833 17 213 17.7 43.5 0.00 0.05 0.05 47 1008.1
20260503193336 17 171 24.1 45.1 0.00 0.05 0.05 49 1008.0
20260503193028 16 139 8.0 33.8 0.00 0.05 0.05 50 1008.2
20260503192832 16 236 19.3 37.0 0.00 0.05 0.05 50 1008.1
20260503192324 16 195 20.9 45.1 0.00 0.05 0.05 53 1008.2
20260503191857 16 171 27.4 45.1 0.00 0.05 0.05 54 1008.2
20260503191524 15 198 19.3 35.4 0.00 0.05 0.05 56 1008.5
20260503191337 15 194 14.5 35.4 0.00 0.05 0.05 57 1008.3
20260503190840 15 198 19.3 33.8 0.00 0.05 0.05 57 1008.5
20260503190324 15 234 14.5 38.6 0.00 0.05 0.05 57 1008.5
20260503190017 15 211 12.9 41.8 0.00 0.05 0.05 58 1008.7
20260503185835 15 203 19.3 41.8 0.00 0.05 0.05 58 1008.7
20260503185335 15 196 17.7 41.8 0.00 0.05 0.05 60 1008.7
20260503184815 14 175 16.1 33.8 0.00 0.05 0.05 63 1009.0
20260503184558 13 157 14.5 33.8 0.00 0.05 0.05 63 1009.1
20260503184317 13 211 20.9 33.8 0.00 0.05 0.05 63 1009.2
20260503183833 13 158 14.5 35.4 0.00 0.05 0.05 64 1009.2
20260503183338 13 181 16.1 35.4 0.00 0.05 0.05 65 1009.4
20260503183055 12 142 14.5 29.0 0.00 0.05 0.05 66 1009.6
20260503182821 12 163 12.9 25.7 0.00 0.05 0.05 67 1009.5
20260503182323 12 151 14.5 25.7 0.00 0.05 0.05 67 1009.5
20260503181835 12 207 12.9 33.8 0.00 0.05 0.05 69 1009.8
20260503181608 12 160 16.1 33.8 0.00 0.05 0.05 69 1009.9
20260503181327 12 169 9.7 25.7 0.00 0.05 0.05 70 1009.9
20260503180835 12 200 14.5 27.4 0.00 0.05 0.05 70 1010.0
20260503180327 12 177 11.3 27.4 0.00 0.05 0.05 72 1010.1
20260503180021 11 360 14.5 30.6 0.00 0.05 0.05 73 1010.2
20260503175829 11 180 16.1 30.6 0.00 0.05 0.05 72 1010.2
20260503175331 11 184 12.9 27.4 0.00 0.05 0.05 75 1010.4
20260503174841 11 175 12.9 27.4 0.00 0.05 0.05 77 1010.8
20260503174517 10 202 16.1 30.6 0.00 0.05 0.05 78 1011.1
20260503174345 10 197 14.5 30.6 0.00 0.05 0.05 78 1011.1
20260503173854 10 213 14.5 27.4 0.00 0.05 0.05 78 1011.3
20260503173320 10 183 12.9 29.0 0.00 0.05 0.05 79 1011.4
20260503173013 10 174 12.9 27.4 0.00 0.05 0.05 78 1011.6
20260503172825 10 177 17.7 27.4 0.00 0.05 0.05 78 1011.7
20260503172323 10 198 12.9 27.4 0.00 0.05 0.05 78 1012.0
20260503171820 10 186 12.9 22.5 0.00 0.05 0.05 78 1012.2
20260503171525 10 186 9.7 30.6 0.00 0.05 0.05 78 1012.3
20260503171324 10 198 11.3 30.6 0.00 0.05 0.05 78 1012.1
20260503170834 10 185 12.9 30.6 0.03 0.05 0.05 78 1012.3
20260503170320 10 196 14.5 30.6 0.03 0.05 0.05 78 1012.4
20260503150833 12 267 14.5 30.6 0.00 0.00 0.00 60 1013.1
20260503150345 12 233 12.9 30.6 0.00 0.00 0.00 60 1013.1
20260503131327 10 360 12.9 30.6 0.00 0.00 0.00 60 1014.0
20260503130817 10 239 14.5 24.1 0.00 0.00 0.00 61 1014.0
20260503130357 10 360 12.9 24.1 0.00 0.00 0.00 61 1014.1
20260503110342 8 248 9.7 19.3 0.00 0.00 0.00 63 1013.8
20260503090331 7 228 8.0 16.1 0.00 0.00 0.00 59 1014.2
20260503081526 8 235 11.3 27.4 0.00 0.00 0.00 55 1014.9
20260503081328 8 214 11.3 22.5 0.00 0.00 0.00 55 1014.4
20260503080819 8 238 8.0 20.9 0.00 0.00 0.00 56 1014.5
20260503080330 8 213 9.7 16.1 0.00 0.00 0.00 56 1014.4
20260503072827 8 244 8.0 16.1 0.00 0.00 0.00 56 1014.5
20260503072331 8 228 8.0 14.5 0.00 0.00 0.00 56 1014.5
20260503071842 8 232 8.0 12.9 0.00 0.00 0.00 56 1014.5
20260503071526 7 207 6.4 11.3 0.00 0.00 0.00 56 1015.0
20260503071331 8 224 6.4 14.5 0.00 0.00 0.00 55 1014.5
20260503070820 8 224 6.4 14.5 0.00 0.00 0.00 55 1014.6
20260503070324 8 204 8.0 14.5 0.00 0.00 0.00 55 1014.7
20260503060321 8 207 8.0 14.5 0.00 0.00 0.00 54 1015.2
20260503054840 8 218 4.8 11.3 0.00 0.00 0.00 53 1015.3
20260503054518 8 223 4.8 12.9 0.00 0.00 0.00 53 1015.8
20260503054353 8 207 6.4 12.9 0.00 0.00 0.00 53 1015.3
20260503053838 8 207 6.4 14.5 0.00 0.00 0.00 53 1015.4
20260503053321 8 237 6.4 12.9 0.00 0.00 0.00 53 1015.4
20260503053047 8 221 6.4 12.9 0.00 0.00 0.00 53 1015.9
20260503052821 8 224 6.4 12.9 0.00 0.00 0.00 53 1015.4
20260503052324 8 203 4.8 11.3 0.00 0.00 0.00 52 1015.4
20260503051835 8 360 6.4 12.9 0.00 0.00 0.00 52 1015.5
20260503051559 8 231 4.8 12.9 0.00 0.00 0.00 52 1016.1
20260503051323 8 233 6.4 12.9 0.00 0.00 0.00 52 1015.5
20260503050857 8 207 6.4 12.9 0.00 0.00 0.00 52 1015.6
20260503050349 8 244 4.8 14.5 0.00 0.00 0.00 52 1015.6
20260503050029 8 217 6.4 14.5 0.00 0.00 0.00 52 1016.2
20260503045830 8 223 6.4 12.9 0.00 0.00 0.00 52 1015.6
20260503045331 8 236 6.4 12.9 0.00 0.00 0.00 52 1015.6
20260503044818 8 252 6.4 14.5 0.00 0.00 0.00 52 1015.6
20260503044543 8 230 4.8 14.5 0.00 0.00 0.00 52 1016.2
20260503044351 8 230 6.4 14.5 0.00 0.00 0.00 52 1015.6
20260503043820 9 259 8.0 16.1 0.00 0.00 0.00 52 1015.7
20260503043328 8 223 8.0 12.9 0.00 0.00 0.00 52 1015.6
20260503043030 8 223 6.4 12.9 0.00 0.00 0.00 52 1016.2
20260503042839 8 222 6.4 12.9 0.00 0.00 0.00 52 1015.7
20260503042329 8 213 8.0 11.3 0.00 0.00 0.00 53 1015.7
20260503041828 8 228 6.4 14.5 0.00 0.00 0.00 53 1015.8
20260503041516 8 223 6.4 14.5 0.00 0.00 0.00 53 1016.3
20260503041333 8 213 6.4 11.3 0.00 0.00 0.00 53 1015.8
20260503040846 8 221 6.4 11.3 0.00 0.00 0.00 54 1015.8
20260503040317 8 236 4.8 11.3 0.00 0.00 0.00 54 1015.8
20260503040027 8 230 4.8 11.3 0.00 0.00 0.00 54 1016.4
20260503035854 8 219 4.8 11.3 0.00 0.00 0.00 53 1015.8
20260503035319 8 360 4.8 11.3 0.00 0.00 0.00 54 1015.9
20260503034825 8 360 6.4 9.7 0.00 0.00 0.00 53 1015.9
20260503034551 8 207 4.8 9.7 0.00 0.00 0.00 53 1016.4
20260503034316 8 213 4.8 9.7 0.00 0.00 0.00 53 1015.8
20260503033850 8 222 4.8 9.7 0.00 0.00 0.00 53 1015.8
20260503033324 8 209 4.8 8.0 0.00 0.00 0.00 53 1015.8
20260503033109 8 207 4.8 8.0 0.00 0.00 0.00 53 1016.4
20260503032826 8 215 4.8 8.0 0.00 0.00 0.00 52 1015.8
20260503032330 9 212 4.8 8.0 0.00 0.00 0.00 52 1015.9
20260503031816 9 360 4.8 8.0 0.00 0.00 0.00 52 1015.9
20260503031600 8 209 3.2 8.0 0.00 0.00 0.00 52 1016.6
20260503031326 9 211 4.8 8.0 0.00 0.00 0.00 52 1016.0
20260503030830 9 217 4.8 8.0 0.00 0.00 0.00 52 1016.0
20260503030334 9 360 4.8 8.0 0.00 0.00 0.00 51 1016.0
20260503030009 8 220 3.2 8.0 0.00 0.00 0.00 51 1016.7
20260503025842 9 223 4.8 8.0 0.00 0.00 0.00 51 1016.0
20260503025328 9 360 4.8 9.7 0.00 0.00 0.00 51 1016.0
20260503024813 9 206 4.8 9.7 0.00 0.00 0.00 51 1016.0
20260503024603 9 212 4.8 8.0 0.00 0.00 0.00 51 1016.6
20260503024321 9 214 4.8 8.0 0.00 0.00 0.00 51 1016.0
20260503023835 9 360 4.8 8.0 0.00 0.00 0.00 51 1016.0
20260503023319 9 360 4.8 8.0 0.00 0.00 0.00 51 1016.0
20260503023011 9 360 4.8 6.4 0.00 0.00 0.00 51 1016.6
20260503022821 9 218 4.8 6.4 0.00 0.00 0.00 51 1016.0
20260503022334 10 360 3.2 6.4 0.00 0.00 0.00 50 1016.0
20260503021842 10 221 3.2 9.7 0.00 0.00 0.00 50 1015.9
20260503021528 9 216 3.2 9.7 0.00 0.00 0.00 49 1016.5
20260503021347 10 360 4.8 9.7 0.00 0.00 0.00 49 1015.9
20260503020816 10 360 4.8 8.0 0.00 0.00 0.00 49 1016.0
20260503020329 10 360 4.8 8.0 0.00 0.00 0.00 48 1016.0
20260503020020 10 360 3.2 8.0 0.00 0.00 0.00 48 1016.6
20260503015813 10 208 4.8 8.0 0.00 0.00 0.00 48 1015.9